Regional Weather Roundup
Issued by NWS Jackson, KY

Home | Current Version | Previous Version | Text Only | Print | Product List | Glossary Off
Versions: 1 2 3 4 5 6 7 8 9 10 11 12 13 14 15 16 17 18 19 20 21 22 23 24 25 26 27 28

000
ASUS43 KJKL 152210
RWRJKL

EAST KENTUCKY HOURLY WEATHER ROUNDUP
NATIONAL WEATHER SERVICE JACKSON KY
500 PM EST FRI DEC 15 2017

NOTE: "FAIR" INDICATES FEW OR NO CLOUDS BELOW 12,000 FEET WITH
NO SIGNIFICANT WEATHER AND/OR OBSTRUCTIONS TO VISIBILITY.

* THESE REPORTS ARE NOT UNDER NWS QUALITY CONTROL AND MAY NOT
  REPORT WEATHER SUCH AS PRECIPITATION AND FOG.

KYZ079-080-083-085-087-088-110-112-115-119-120-152300
...EASTERN KENTUCKY...

CITY           SKY/WX    TMP DP  RH WIND       PRES   REMARKS
JACKSON        CLOUDY    31  19  61 VRB3      30.05R
LONDON         MOCLDY    32  20  61 SW6       30.09R WCI  26
SOMERSET*      CLOUDY    32  21  64 S5        30.12S WCI  27
MONTICELLO*    PTCLDY    33  21  61 W14       30.13R WCI  23
WILLIAMSBURG*  CLEAR     32  19  59 W3        30.10R
MIDDLESBORO*   CLOUDY    33  20  59 W7        30.11R WCI  27
HARLAN APT*    CLOUDY    32  21  64 SW6       30.08R WCI  26
PIKE CO APT*   CLOUDY    29  19  64 S5        30.04S WCI  24
BIG SANDY APT* CLOUDY    31  19  62 SW6       30.05S WCI  25
MOREHEAD APT*  CLOUDY    32  19  59 SW8G17    30.06R WCI  25
$$

KYZ035-036-041-042-044-050-067-078-099-152300
...CENTRAL KENTUCKY...

CITY           SKY/WX    TMP DP  RH WIND       PRES   REMARKS
MT STERLING*   CLOUDY    32  21  64 W8        30.07R WCI  25
FLEMING/MASON* CLOUDY    32  20  62 SW12      30.05R WCI  23
DANVILLE*      CLOUDY    34  21  60 SW7       30.09R WCI  28
LEXINGTON      CLOUDY    34  21  59 SW13      30.06R WCI  25
FRANKFORT      CLOUDY    35  19  52 SW9       30.05R WCI  28
LOUISVILLE     CLOUDY    37  22  54 SW10      30.08R WCI  30
LEBANON*       CLOUDY    36  19  51 SW7       30.09R WCI  30
GLASGOW*       CLOUDY    37  23  56 SW8       30.13R WCI  31
BOWLING GREEN  CLOUDY    40  23  50 SW8       30.14R WCI  34
$$

KYZ091>093-OHZ055-061-077-WVZ005-015-034-035-042-152300
...SOUTHERN OHIO/WEST VIRGINIA...

CITY           SKY/WX    TMP DP  RH WIND       PRES   REMARKS
COVINGTON      CLOUDY    32  22  66 W10       30.02R WCI  24
COLUMBUS       CLOUDY    31  20  63 W13       29.96R WCI  21
DAYTON         CLOUDY    29  21  72 W18       29.98R WCI  16
WILMINGTON     CLOUDY    30  21  69 W14       29.98R WCI  19
HUNTINGTON     CLOUDY    32  16  51 SW8       30.04R WCI  25
CHARLESTON     CLOUDY    32  16  51 SW14G20   30.02R WCI  22
PINEVILLE*       N/A     30  18  61 MISG      30.06R
BECKLEY        CLOUDY    25  16  68 NW10      29.95R WCI  15
BLUEFIELD      CLOUDY    25  16  68 NW14G25   29.93R WCI  13
LOGAN CO APT*  CLOUDY    28  18  64 VRB5G13   30.01F WCI  23
$$

VAZ002-007-008-TNZ017-027-036-066-071-152300
...SOUTHWEST VIRGINIA/EAST TENNESSEE...

CITY           SKY/WX    TMP DP  RH WIND       PRES   REMARKS
WISE*          CLOUDY    28  21  74 W6        30.00R WCI  22
JONESVILLE*    MOCLDY    32  19  59 W8        30.10R WCI  25
ABINGDON*      CLOUDY    32  22  65 W10G17    30.00S WCI  24
BRISTOL        MOCLDY    33  22  63 W12       30.05R WCI  24
MORRISTOWN*    CLOUDY    34  25  69 SW8       30.08R WCI  27
SEVIERVILLE*   CLOUDY    34  23  64 SW7       30.11R WCI  28
KNOXVILLE      MOCLDY    33  25  72 SW10      30.12R WCI  25
LAFOLLETTE*    PTCLDY    34  19  55 CALM      30.14R
OAK RIDGE      CLEAR     35  22  58 W5        30.13R WCI  31
CROSSVILLE     CLEAR     30  19  63 W9        30.09R WCI  22
NASHVILLE      PTCLDY    41  22  46 SW7       30.15R
$$

...KEY TO REMARKS...
VSB - VISIBILITY IN MILES
WCI - WIND CHILL INDEX
HX  - HEAT INDEX

$$




USA.gov is the U.S. government's official web portal to all federal, state and local government web resources and services.